Content
SEND FEEDBACK

Daily
Averages
Monthly
Summary
Brazil

RIO DE JANEIRO, RIO DE JANEIRO


Home > South America > Brazil > Rio De Janeiro
Elevation: 20 feet     Latitude: 22 49S     Longitude: 043 15W

WEATHER
 
SELECT A DAY
Number of Records: 197,293;   Date Range: 6/30/96 - 11/26/14
 
SHARE

PRINT THIS DATA

[ ← Previous Day ]
WEATHER ALMANAC - FEBRUARY 10, 2013
[ Next Day → ]
[ °C ]   °F
Weather ElementAverageHighLow
Temperature82.5 °F89.6 °F (3:00 pm)78 °F (4:00 am)
Dewpoint73.2 °F76 °F (10:00 am)69.8 °F (7:00 pm)
Humidity72.9 %89 % (4:00 am)49 % (4:00 pm)
Barometer29.92 in29.98 in (1:00 am)29.83 in (5:00 pm)
Wind Speed6.7 mph12.7 mph (5:00 pm)
Weather ElementAverage
Visibility6.3 mi
Wind DirectionSE (131.6 °)

Weather ElementTotal
Precipitation---
Cooling Degree Days18.8 (Base 65)
Growing Degree Days33.8 (Base 50)
Averaged from 32 records on February 10, 2013
WEATHER CONDITIONS BREAKOUT
WIND DIRECTION BREAKOUT
WEATHER BY HOUR - FEBRUARY 10, 2013
[ °C ]   °F
Local TimeTemperatureDewpointHumidityBarometerVisibilityWind DirectionWind SpeedGust SpeedPrecipitationEventsConditions
1:00 AM79.0 °F73.0 °F78 %29.97 in12.0 miWSW (250°)6.9 mphScattered Clouds
1:00 AM78.8 °F73.4 °F83 %29.98 in6.2 miWSW (250°)6.9 mphMostly Cloudy
2:00 AM78.8 °F73.4 °F83 %29.95 in6.2 miWest (270°)5.8 mphMostly Cloudy
3:00 AM78.8 °F73.4 °F83 %29.92 in6.2 miSW (230°)5.8 mphMostly Cloudy
4:00 AM78.0 °F75.0 °F88 %29.93 in12.0 miEast (100°)2.3 mphPartly Cloudy
4:00 AM78.8 °F75.2 °F89 %29.92 in6.2 miEast (100°)2.3 mphMostly Cloudy
5:00 AM78.8 °F75.2 °F89 %29.92 in6.2 miEast (90°)4.6 mphMostly Cloudy
6:00 AM78.8 °F75.2 °F89 %29.92 in4.3 miENE (70°)5.8 mphScattered Clouds
7:00 AM78.8 °F75.2 °F89 %29.92 in3.1 miENE (60°)4.6 mphMostly Cloudy
7:00 AM78.0 °F75.0 °F88 %29.94 in3.0 miENE (60°)4.6 mphMist
8:00 AM78.8 °F75.2 °F89 %29.95 in3.1 miNNE (30°)4.6 mphMostly Cloudy
9:00 AM80.6 °F75.2 °F84 %29.95 in3.7 miNNE (30°)6.9 mphMostly Cloudy
10:00 AM83.0 °F76.0 °F73 %29.98 in4.0 miNorth (350°)4.6 mphHaze
10:00 AM82.4 °F75.2 °F79 %29.98 in3.7 miNorth (350°)4.6 mphMostly Cloudy
11:00 AM86.0 °F75.2 °F70 %29.95 in5.0 miEast (80°)8.1 mphScattered Clouds
12:00 PM87.8 °F71.6 °F58 %29.95 in5.0 miENE (70°)6.9 mphScattered Clouds
1:00 PM87.8 °F73.4 °F62 %29.92 in6.2 miESE (120°)11.5 mphScattered Clouds
1:00 PM87.0 °F74.0 °F57 %29.94 in6.0 miESE (120°)11.5 mphHaze
2:00 PM87.8 °F73.4 °F62 %29.92 in6.2 miESE (120°)6.9 mphScattered Clouds
3:00 PM89.6 °F73.4 °F59 %29.89 in6.2 miESE (120°)11.5 mphScattered Clouds
4:00 PM89.0 °F72.0 °F49 %29.88 in9.0 miESE (120°)9.2 mphHaze
4:00 PM89.6 °F71.6 °F55 %29.86 in6.2 miESE (120°)9.2 mphScattered Clouds
5:00 PM86.0 °F73.4 °F66 %29.83 in6.2 miESE (120°)12.7 mphPartly Cloudy
6:00 PM86.0 °F71.6 °F62 %29.83 in6.2 miSE (130°)10.4 mphPartly Cloudy
7:00 PM82.4 °F69.8 °F66 %29.86 in6.2 miEast (80°)8.1 mphPartly Cloudy
7:00 PM83.0 °F70.0 °F57 %29.86 in11.0 miEast (80°)8.1 mphHaze
8:00 PM80.6 °F71.6 °F74 %29.86 in6.2 miEast (80°)5.8 mphPartly Cloudy
9:00 PM80.6 °F71.6 °F74 %29.89 in6.2 miSE (140°)3.5 mphPartly Cloudy
10:00 PM82.0 °F70.0 °F60 %29.91 in12.0 miESE (120°)4.6 mphHaze
10:00 PM82.4 °F69.8 °F66 %29.92 in6.2 miESE (120°)4.6 mphPartly Cloudy
11:00 PM80.6 °F71.6 °F74 %29.92 in6.2 miCalmPartly Cloudy
11:32 PM80.6 °F73.4 °F79 %29.95 in6.2 miSW (230°)11.5 mphPartly Cloudy
Hourly data recorded from SBGL, located miles away from Rio De Janeiro, Rio De Janeiro







STORIES FROM OUR PARTNERS